Regional Weather Roundup
Issued by NWS Albany, NY

Home | Current Version | Previous Version | Text Only | Print | Product List | Glossary On
Versions: 1 2 3 4 5 6 7 8 9 10 11 12 13 14 15 16 17 18 19 20 21 22 23 24 25 26 27 28 29 30 31 32 33 34 35 36 37 38 39 40 41 42 43 44 45 46 47 48 49
000
ASUS41 KALY 060410
RWRALY

NEW YORK STATE HOURLY WEATHER ROUNDUP
NATIONAL WEATHER SERVICE ALBANY NY
1200 AM EDT WED MAY 06 2015

NOTE: "FAIR" INDICATES FEW OR NO CLOUDS BELOW 12,000 FEET WITH NO
SIGNIFICANT WEATHER AND/OR NO OBSTRUCTIONS TO VISIBILITY.

NYZ032-033-038>043-046>054-057>066-NYZ062>081-060500-
EAST


CITY           SKY/WX    TMP DP  RH WIND       PRES   REMARKS
ALBANY         CLOUDY    62  39  42 N6        30.24R
GLENS FALLS    MOCLDY    55  41  59 N8        30.26R
POUGHKEEPSIE   CLOUDY    65  46  50 CALM      30.20S
NEWBURGH       MOCLDY    66  45  45 E12       30.22F
MONTGOMERY     CLOUDY    66  45  46 CALM      30.21S
WHITE PLAINS   CLOUDY    67  52  58 N7        30.19S
ISLIP          MOCLDY    60  53  77 CALM      30.17S
NEW YORK CITY  CLOUDY    66  53  63 E6        30.17S
CENTRAL PARK   CLOUDY    73  52  47 CALM      30.21R
$$

NYZ005>009-017-018-044>046-055-056-060500-
CENTRAL


CITY           SKY/WX    TMP DP  RH WIND       PRES   REMARKS
FULTON         CLOUDY    50  40  68 CALM      30.28R
SYRACUSE       CLOUDY    56  40  55 CALM      30.27S
ROME           MOCLDY    53  42  66 CALM      30.29R
ELMIRA         LGT RAIN  57  56  96 CALM      30.28S
BINGHAMTON     LGT RAIN  59  46  62 NW3       30.28R
MONTICELLO     CLOUDY    64  37  36 NW5       30.27R
$$

NYZ026>034-041>043-060500-
NORTH


CITY           SKY/WX    TMP DP  RH WIND       PRES   REMARKS
WATERTOWN      PTCLDY    43  40  89 CALM      30.28R
FORT DRUM      NOT AVBL
MASSENA        CLEAR     51  38  60 W5        30.27R
SARANAC LAKE   MOCLDY    35  33  92 CALM      30.27R
PLATTSBURGH    MOCLDY    56  34  43 VRB3      30.24S
$$

NYZ001>004-010>016-019>021-060500-
WEST


CITY           SKY/WX    TMP DP  RH WIND       PRES   REMARKS
NIAGARA FALLS  CLOUDY    53  48  83 CALM      30.28S
BUFFALO        CLOUDY    55  52  89 CALM      30.29R FOG
DUNKIRK        LGT RAIN  51  50  96 E5        30.28F FOG
JAMESTOWN      CLOUDY    54  50  87 E5        30.28F
WELLSVILLE     CLOUDY    56  52  86 N5        30.31S FOG
ROCHESTER      CLOUDY    58  43  57 CALM      30.29S
PENN YAN       LGT RAIN  57  53  86 SW3       30.30R
$$

             KEY
       WCI = WIND CHILL INDEX
       VSB = VISIBILITY
       HX  = HEAT INDEX
$$


USA.gov is the U.S. government's official web portal to all federal, state and local government web resources and services.